Weather History for Kansas City International, MO

Change the Weather History Date:

Friday, April 11, 2014

  Actual Average Record
Temperature  
Mean Temperature 58 °F 53 °F  
Max Temperature 75 °F 64 °F 89 °F (1930)
Min Temperature 40 °F 42 °F 26 °F (1940)
Degree Days  
Heating Degree Days 7 12  
Month to date heating degree days 162 152  
Since 1 July heating degree days 5493 4843  
Cooling Degree Days 0 1  
Month to date cooling degree days 0 5  
Year to date cooling degree days 0 8  
Growing Degree Days 7 (Base 50)    
Moisture  
Dew Point 29 °F    
Average Humidity 39    
Maximum Humidity 60    
Minimum Humidity 17    
Precipitation  
Precipitation 0.00 in 0.11 in 1.09 in (1893)
Month to date precipitation 0.57 1.13  
Year to date precipitation 3.93 6.03  
Snow  
Snow 0.00 in 0.10 in 1.80 in (1957)
Month to date snowfall 0.0 0.4  
Since 1 July snowfall 26.0 18.6  
Snow Depth 0.00 in    
Sea Level Pressure  
Sea Level Pressure 29.99 in    
Wind  
Wind Speed 8 mph (SE)    
Max Wind Speed 17 mph    
Max Gust Speed 22 mph    
Visibility 10 miles    
Events      
T = Trace of Precipitation, MM = Missing Value Source: NWS Daily Summary

Daily Weather History Graph

Daily Weather History Graph

Search for Another Location

Airport:

Trip Planner

Search our weather history database for the weather conditions in past years. The results will help you decide how hot, cold, wet, or windy it might be!

Date:

Astronomy

Apr. 11, 2014 Rise Set
Actual Time 6:47 AM CDT 7:52 PM CDT
Civil Twilight 6:20 AM CDT 8:20 PM CDT
Nautical Twilight 5:47 AM CDT 8:53 PM CDT
Astronomical Twilight 5:13 AM CDT 9:27 PM CDT
Moon 4:35 PM CDT (4/11) 4:42 AM CDT (4/11)
Length of Visible Light 13h 59m
Length of Day
13h 04m
Waxing Gibbous, 87% of the Moon is Illuminated
Apr 11
Waxing Gibbous
Apr 15
Full
Apr 22
Last Quarter
Apr 29
New
May 6
First Quarter

Hourly Weather History & Observations

Time (CDT) Temp. Windchill Dew Point Humidity Pressure Visibility Wind Dir Wind Speed Gust Speed Precip Events Conditions
12:53 AM 50.0 °F - 28.0 °F 43% 30.00 in 10.0 mi East 4.6 mph - N/A   Scattered Clouds
1:53 AM 52.0 °F - 24.1 °F 34% 30.01 in 10.0 mi NE 3.5 mph - N/A   Scattered Clouds
2:53 AM 50.0 °F - 25.0 °F 38% 30.02 in 10.0 mi Calm Calm - N/A   Clear
3:53 AM 45.0 °F 41.8 °F 26.1 °F 48% 30.04 in 10.0 mi NNE 5.8 mph - N/A   Partly Cloudy
4:53 AM 45.0 °F 43.5 °F 30.9 °F 58% 30.04 in 10.0 mi East 3.5 mph - N/A   Clear
5:53 AM 41.0 °F 34.3 °F 28.0 °F 60% 30.02 in 10.0 mi SSE 11.5 mph - N/A   Scattered Clouds
6:53 AM 45.0 °F 42.6 °F 26.1 °F 48% 30.05 in 10.0 mi East 4.6 mph - N/A   Mostly Cloudy
7:53 AM 50.0 °F - 27.0 °F 41% 30.06 in 10.0 mi ESE 4.6 mph - N/A   Overcast
8:53 AM 54.0 °F - 28.9 °F 38% 30.05 in 10.0 mi SE 9.2 mph - N/A   Mostly Cloudy
9:53 AM 60.1 °F - 27.0 °F 28% 30.06 in 10.0 mi SE 11.5 mph - N/A   Scattered Clouds
10:53 AM 64.9 °F - 25.0 °F 22% 30.07 in 10.0 mi SE 13.8 mph - N/A   Partly Cloudy
11:53 AM 66.9 °F - 26.1 °F 21% 30.05 in 10.0 mi SSE 13.8 mph - N/A   Scattered Clouds
12:53 PM 69.1 °F - 25.0 °F 19% 30.04 in 10.0 mi SSE 11.5 mph - N/A   Scattered Clouds
1:53 PM 71.1 °F - 25.0 °F 18% 30.01 in 10.0 mi SSE 9.2 mph - N/A   Mostly Cloudy
2:53 PM 73.0 °F - 28.0 °F 19% 29.99 in 10.0 mi Variable 4.6 mph - N/A   Scattered Clouds
3:53 PM 73.9 °F - 30.0 °F 20% 29.96 in 10.0 mi East 5.8 mph - N/A   Partly Cloudy
4:53 PM 75.0 °F - 32.0 °F 21% 29.94 in 10.0 mi SSE 8.1 mph - N/A   Partly Cloudy
5:53 PM 73.9 °F - 32.0 °F 21% 29.92 in 10.0 mi SE 9.2 mph - N/A   Partly Cloudy
6:53 PM 72.0 °F - 35.1 °F 26% 29.91 in 10.0 mi SE 10.4 mph - N/A   Partly Cloudy
7:53 PM 64.0 °F - 36.0 °F 35% 29.91 in 10.0 mi SE 8.1 mph - N/A   Scattered Clouds
8:53 PM 63.0 °F - 35.1 °F 35% 29.91 in 10.0 mi SE 8.1 mph - N/A   Scattered Clouds
9:53 PM 64.9 °F - 36.0 °F 34% 29.91 in 10.0 mi ESE 9.2 mph - N/A   Partly Cloudy
10:53 PM 60.1 °F - 37.0 °F 42% 29.90 in 10.0 mi SE 9.2 mph - N/A   Clear
11:53 PM 60.1 °F - 37.0 °F 42% 29.87 in 10.0 mi SE 12.7 mph - N/A   Clear